Weather observations for the past three days for
Davenport Municipal Airport
Imperial (Metric)
Date Time (cdt) Wind (mph) Vis. (mi.) Weather Sky Cond. Temperature (ºF) Relative Humidity Wind Chill (°F) Heat Index (°F) Pressure Precipitation (in)
Air Dwpt 6 hour altimeter (in) sea level (mb) 1 hr 3 hr 6 hr
Max. Min.
16 00:52 SE 3 10.00 Fair CLR 68 66.9 87.1 68 96% 29.81 1008.6 1.16
15 23:52 SE 3 10.00 Fair CLR 69.1 68 96% 29.8 1008.2
15 22:52 SE 6 10.00 Partly Cloudy SCT006 70 69.1 97% 29.81 1008.4
15 21:52 SE 6 10.00 Light Rain BKN120 70 70 100% 29.79 1008.0 0.04 1.16
15 20:52 SW 7 10.00 Light Rain FEW120 70 69.1 97% 29.75 1006.7 0.02
15 19:52 W 15 G 28 5.00 Thunderstorm Rain Fog/Mist BKN024 BKN065 OVC080 69.1 69.1 100% 29.81 1008.7 1.1
15 18:52 S 5 10.00 Fair CLR 86 79 91 86 80% 100 29.7 1004.8
15 17:52 S 8 G 20 10.00 Partly Cloudy SCT028 87.1 79 77% 101 29.71 1005.0
15 16:52 S 14 G 20 10.00 A Few Clouds FEW032 90 80.1 73% 108 29.71 1005.1
15 15:52 S 12 G 20 10.00 Mostly Cloudy BKN030 BKN039 90 81 75% 109 29.76 1006.6
15 14:52 SE 8 10.00 Mostly Cloudy BKN028 BKN035 90 81 75% 109 29.78 1007.4
15 13:52 E 6 10.00 Mostly Cloudy SCT027 BKN038 88 79 75% 103 29.81 1008.5
15 12:52 Calm 10.00 Fair CLR 89.1 79 89.1 72 72% 105 29.84 1009.6
15 11:52 Calm 10.00 Fair CLR 87.1 78.1 75% 100 29.86 1010.3
15 10:52 E 7 10.00 Fair CLR 84 77 80% 94 29.86 1010.3
15 09:52 S 5 10.00 Fair CLR 82 73.9 77% 88 29.87 1010.4
15 08:52 SE 5 10.00 Fair CLR 78.1 73 85% 81 29.87 1010.3
15 07:52 Calm 10.00 Fair CLR 75 73 94% 73 29.87 1010.4
15 06:52 Calm 6.00 Fog/Mist CLR 72 71.1 72 68 97% 29.87 1010.5
15 05:52 Calm 0.75 Fog/Mist VV003 68 68 100% 29.88 1010.9
15 04:52 S 3 7.00 Fair CLR 69.1 68 96% 29.88 1010.9
15 03:52 Calm 7.00 Fair CLR 69.1 68 96% 29.88 1010.8
15 02:52 Calm 10.00 Fair CLR 70 69.1 97% 29.89 1011.3
15 01:52 W 3 10.00 Fair CLR 71.1 70 96% 29.89 1011.1
15 00:52 SW 5 10.00 Fair CLR 71.1 70 88 70 96% 29.88 1010.9 1.02
14 23:52 Calm 10.00 Fair CLR 70 69.1 97% 29.86 1010.2 0.02
14 22:52 E 9 0.75 Thunderstorm Heavy Rain Fog/Mist FEW008 SCT015 OVC020 73 72 96% 29.91 1011.9 1
14 21:52 S 15 G 23 10.00 Fair CLR 81 73.9 79% 86 29.81 1008.4
14 20:52 SW 14 10.00 Mostly Cloudy SCT039 SCT050 BKN110 81 73 77% 86 29.83 1009.3
14 19:52 SW 12 10.00 Thunderstorm in Vicinity FEW045 SCT065 86 78.1 77% 98 29.82 1009.0
14 18:52 S 10 G 22 10.00 Fair CLR 88 77 90 84.9 70% 100 29.85 1009.8
14 17:52 SW 13 10.00 Partly Cloudy FEW038 SCT050 88 78.1 73% 102 29.88 1010.7
14 16:52 S 12 G 22 10.00 Partly Cloudy SCT033 89.1 78.1 70% 103 29.88 1010.6
14 15:52 S 13 G 21 10.00 Mostly Cloudy BKN032 88 78.1 73% 102 29.88 1010.9
14 14:52 S 15 G 21 10.00 Mostly Cloudy BKN033 87.1 75.9 70% 98 29.89 1011.3
14 13:52 S 13 G 22 10.00 Mostly Cloudy SCT030 BKN035 87.1 75.9 70% 98 29.91 1011.9
14 12:52 S 15 G 26 10.00 Fair CLR 84.9 73.9 84.9 68 70% 92 29.94 1012.8 0.05
14 11:52 S 12 10.00 Fair CLR 82 72 72% 87 29.98 1014.1
14 10:52 S 14 10.00 Fair CLR 77 71.1 82% 79 29.99 1014.5
14 09:52 SE 8 10.00 A Few Clouds FEW005 71.1 69.1 94% 30.01 1015.3 0.05
14 08:52 E 15 G 22 5.00 Light Rain Fog/Mist SCT031 BKN100 OVC120 68 66.9 96% 30.05 1016.6 0.04
14 07:52 NE 14 G 25 8.00 Light Rain FEW010 BKN045 OVC060 70 66.9 90% 30.06 1016.9 0.01
14 06:52 SW 7 10.00 Thunderstorm in Vicinity Light Rain BKN090 75.9 73 78.1 75 91% 76 29.97 1014.0
14 05:52 S 8 10.00 Overcast OVC080 75.9 72 88% 76 29.99 1014.7
14 04:52 S 9 10.00 Fair CLR 75.9 72 88% 76 29.97 1013.9
14 03:52 S 9 10.00 A Few Clouds FEW055 77 71.1 82% 79 29.97 1013.7
14 02:52 S 12 G 22 10.00 Fair CLR 77 71.1 82% 79 29.99 1014.6
14 01:52 S 13 10.00 Fair CLR 77 71.1 82% 79 30.02 1015.4
14 00:52 S 13 10.00 A Few Clouds FEW060 78.1 71.1 86 78.1 79% 80 30.02 1015.6
13 23:52 SW 12 10.00 Mostly Cloudy BKN049 80.1 71.1 74% 84 30.05 1016.5
13 22:52 S 12 G 23 10.00 Fair CLR 80.1 72 76% 84 30.03 1016.0
13 21:52 S 10 10.00 Fair CLR 81 73.9 79% 86 30.05 1016.4
13 20:52 S 12 10.00 Fair CLR 82 73.9 77% 88 30.01 1015.4
13 19:52 S 14 10.00 Fair CLR 84 73.9 72% 91 30.02 1015.6
13 18:52 S 13 10.00 A Few Clouds FEW032 86 73.9 89.1 86 67% 94 30.02 1015.6
13 17:52 SW 12 10.00 Fair CLR 87.1 72 61% 94 30.02 1015.6
13 16:52 SW 9 G 18 10.00 Fair CLR 88 73 61% 96 30.03 1015.9
13 15:52 SW 14 G 22 10.00 A Few Clouds FEW038 89.1 72 57% 96 30.05 1016.7
13 14:52 SW 9 10.00 Mostly Cloudy SCT033 BKN045 87.1 75.9 70% 98 30.07 1017.4
13 13:52 SW 10 G 22 10.00 Fair CLR 88 75 66% 98 30.08 1017.5
13 12:52 S 17 G 24 10.00 Fair CLR 87.1 75.9 87.1 73 70% 98 30.09 1018.1
13 11:52 S 14 10.00 Fair CLR 86 75 70% 95 30.09 1018.2
13 10:52 S 13 10.00 Fair CLR 84 72 67% 90 30.11 1018.6
13 09:52 S 10 10.00 A Few Clouds FEW055 82 71.1 69% 86 30.12 1019.1
13 08:52 SE 9 10.00 Fair CLR 79 70 74% 82 30.13 1019.3
13 07:52 SE 8 10.00 A Few Clouds FEW075 75 70 84% 75 30.12 1019.1
13 06:52 SE 6 10.00 Overcast FEW055 OVC070 73 70 73 69.1 90% 30.13 1019.4
13 05:52 E 6 10.00 Fair CLR 70 68 93% 30.12 1019.2
13 04:52 SE 6 10.00 Fair CLR 71.1 68 90% 30.13 1019.3
13 03:52 SE 6 10.00 A Few Clouds FEW026 71.1 68 90% 30.12 1019.0
13 02:52 SE 5 10.00 Fair CLR 71.1 68 90% 30.11 1018.9
13 01:52 SE 5 10.00 Partly Cloudy SCT037 72 68 87% 30.12 1019.1
Date Time (cdt) Wind (mph) Vis. (mi.) Weather Sky Cond. Air Dwpt Max. Min. Relative Humidity Wind Chill (°F) Heat Index (°F) altimeter (in) sea level (mb) 1 hr 3 hr 6 hr
6 hour
Temperature (ºF) Pressure Precipitation (in)